Regional Weather Roundup
Issued by NWS Green Bay, WI

Home | Current Version | Previous Version | Text Only | Print | Product List | Glossary On
Versions: 1 2 3 4 5 6 7 8 9 10 11 12 13 14 15 16 17 18 19 20 21 22 23 24 25 26 27 28 29 30 31 32 33 34 35 36 37 38 39 40 41 42 43 44 45 46 47 48 49 50
000
ASUS43 KGRB 111000
RWRGRB

NORTH-CENTRAL AND NORTHEAST WISCONSIN REGIONAL WEATHER ROUNDUP
NATIONAL WEATHER SERVICE GREEN BAY WI
400 AM CST THU FEB 11 2016

WIZ005-009-010>012-018-019-111100-
NORTH CENTRAL WISCONSIN

CITY           SKY/WX    TMP DP  RH WIND       PRES   REMARKS
IRONWOOD       CLOUDY     3   0  85 W13       30.15R WCI -14
MANITOWISH WTR NOT AVBL
ARBOR VITAE    NOT AVBL
EAGLE RIVER    NOT AVBL
LAND O LAKES   NOT AVBL
RHINELANDER    CLOUDY     2  -4  76 W5        30.13R WCI  -8
PHILLIPS       NOT AVBL
ANTIGO         NOT AVBL
TOMAHAWK       NOT AVBL
MERRILL        NOT AVBL
$$

WIZ013-073-111100-
NORTHEAST WISCONSIN

CITY           SKY/WX    TMP DP  RH WIND       PRES   REMARKS
IRON MOUNTAIN  CLOUDY     7  -3  64 NW10      30.12R WCI  -8
MARINETTE      CLEAR      3  -4  72 NW3       30.17R
$$

WIZ017-030-035>037-045-111100-
CENTRAL WISCONSIN

CITY           SKY/WX    TMP DP  RH WIND       PRES   REMARKS
MEDFORD        NOT AVBL
WAUSAU         CLEAR      0  -6  76 N3        30.18R
MOSINEE        NOT AVBL
MARSHFIELD     CLOUDY    -5 -12  72 W3        30.19R
WISC RAPIDS    PTCLDY    -3  -8  79 W5        30.24R WCI -13
STEVENS POINT  NOT AVBL
WAUPACA        NOT AVBL
SHAWANO        NOT AVBL
CLINTONVILLE   NOT AVBL
WAUTOMA        NOT AVBL
$$

WIZ038-039-048-051-111100-
FOX VALLEY

CITY           SKY/WX    TMP DP  RH WIND       PRES   REMARKS
NWS GREEN BAY  CLEAR     -1  -7  75 W9        30.20R WCI -16
APPLETON       NOT AVBL
OSHKOSH        CLEAR      0  -7  72 W7        30.21R WCI -13
FOND DU LAC    CLEAR      2  -6  69 W9        30.21R WCI -13
$$

WIZ022-050-052-111100-
EAST CENTRAL WISCONSIN

CITY           SKY/WX    TMP DP  RH WIND       PRES   REMARKS
EPHRAIM        NOT AVBL
STURGEON BAY   CLEAR      1  -6  71 W8        30.18S WCI -12
MANITOWOC      NOT AVBL
SHEBOYGAN      CLEAR      2  -6  69 W10       30.19R WCI -14
$$

LMZ563-521-522-541>543-111100-
LAKESHORE

STATION/POSITION TIME  TEMP    WIND        PRES    VSBY  WAVE
                       AIR SEA DIR/SP/G                  HT/PER
                 (UTC) (F)     (DEG/KT/KT) (MB)    (MI)  (FT/S)
SHEBOYGAN LKSHOR 0900    6     290/ 11/ 14 1023.9R
KEWAUNEE LKSHORE 0900    4     310/  8/ 10 1020.8R
CHAMBERS ISLAND  0900    9     300/ 11/ 16 1021.0R
MENOMINEE LKSHOR 0900    7     270/  8     1020.4R
$$



USA.gov is the U.S. government's official web portal to all federal, state and local government web resources and services.